User: anonymous   Login
Location: Unspecified
(42.3650°N, 71.1030°W)
Time: 08:35:58
(UTC+00:00)
Language:

NOAA 15 - Orbit

View from above orbital plane
View from above orbital plane
View from above satellite
View from above satellite

Ground track
Ground track

The orbit data is extracted from the following two-line orbital elements,

1 25338U 98030A   24205.91761757  .00000566  00000-0  25219-3 0  9996
2 25338  98.5672 232.2753 0009664 211.5273 148.5329 14.26637534362420
Epoch (UTC): 23 July 2024 22:01:22
Eccentricity: 0.0009664
inclination: 98.5672°
perigee height: 796 km
apogee height: 810 km
right ascension of ascending node: 232.2753°
argument of perigee: 211.5273°
revolutions per day: 14.26637534
mean anomaly at epoch: 148.5329°
orbit number at epoch: 36242

The dashed part of the orbit path shows where the satellite is in the earth's shadow,  

DLR